Location: Rio Tanui
(39.9167°N, 8.5167°E)
Time: 02:44:08
(UTC+00:00)

Milstar 3 - Pass Details

Date: 08 February 2023
Orbit: 1093 x 5152 km, 28.2° (Epoch: 28 February)

Event Time Altitude Azimuth Distance (km) Brightness Sun altitude
Rises 19:10:10 0° 231° (SW) 6,973 7.6 -26.7°
Reaches altitude 10° 19:16:17 10° 221° (SW) 5,241 6.7 -27.8°
Maximum altitude 19:26:51 29° 168° (SSE) 2,787 4.6 -29.8°
Enters shadow 19:28:04 28° 156° (SSE) 2,706 4.5 -30.1°
